When you browse on this site, cookies collect data to enhance your experience and personalize the content and advertising you see.
Visit our Privacy Policy to learn more. By continuing to use the site, you agree to this use of cookies and data.
  • In Austria
  • List of Countries
  • For 7 days
  • Water Temperature
  • Satellite Maps
  • Weather Map
  • News
  • Weather Widgets
  • user-avatar
    Login

    Hourly Weather Aveiro

    Today, 21 March, Thursday

    Time Temperature Precipitation Wind Pressure Humidity
    00:00 +9°C° 0 mm 3 mps 768 mmHg 61%
    01:00 +9°C° 0 mm 3 mps 768 mmHg 62%
    02:00 +8°C° 0 mm 4 mps 768 mmHg 63%
    03:00 +7°C° 0 mm 4 mps 768 mmHg 62%
    04:00 +7°C° 0 mm 4 mps 768 mmHg 62%
    05:00 +7°C° 0 mm 4 mps 768 mmHg 59%
    06:00 +8°C° 0 mm 4 mps 768 mmHg 56%
    07:00 +10°C° 0 mm 4 mps 768 mmHg 53%
    08:00 +12°C° 0 mm 4 mps 769 mmHg 49%
    09:00 +14°C° 0 mm 3 mps 768 mmHg 45%
    10:00 +18°C° 0 mm 2 mps 768 mmHg 40%
    11:00 +21°C° 0 mm 1 mps 768 mmHg 35%
    12:00 +22°C° 0 mm 1 mps 768 mmHg 35%
    13:00 +21°C° 0 mm 2 mps 768 mmHg 34%
    14:00 +21°C° 0 mm 2 mps 767 mmHg 34%
    15:00 +20°C° 0 mm 3 mps 767 mmHg 39%
    16:00 +18°C° 0 mm 3 mps 767 mmHg 45%
    17:00 +16°C° 0 mm 3 mps 767 mmHg 51%
    18:00 +14°C° 0 mm 3 mps 767 mmHg 54%
    19:00 +13°C° 0 mm 3 mps 767 mmHg 57%
    20:00 +11°C° 0 mm 3 mps 768 mmHg 60%
    21:00 +12°C° 0 mm 2 mps 768 mmHg 61%
    22:00 +10°C° 0 mm 2 mps 768 mmHg 61%
    23:00 +10°C° 0 mm 2 mps 768 mmHg 61%

    Tomorrow, 22 March, Friday

    Time Temperature Precipitation Wind Pressure Humidity
    00:00 +10°C° 0 mm 2 mps 768 mmHg 62%
    01:00 +10°C° 0 mm 2 mps 768 mmHg 63%
    02:00 +9°C° 0 mm 2 mps 768 mmHg 63%
    03:00 +9°C° 0 mm 2 mps 768 mmHg 63%
    04:00 +9°C° 0 mm 2 mps 768 mmHg 63%
    05:00 +9°C° 0 mm 2 mps 768 mmHg 63%
    06:00 +12°C° 0 mm 2 mps 768 mmHg 59%
    07:00 +14°C° 0 mm 2 mps 769 mmHg 55%
    08:00 +16°C° 0 mm 1 mps 769 mmHg 51%
    09:00 +19°C° 0 mm 1 mps 769 mmHg 45%
    10:00 +21°C° 0 mm 1 mps 769 mmHg 39%
    11:00 +24°C° 0 mm 1 mps 769 mmHg 34%
    12:00 +23°C° 0 mm 2 mps 768 mmHg 34%
    13:00 +22°C° 0 mm 3 mps 768 mmHg 35%
    14:00 +22°C° 0 mm 4 mps 767 mmHg 35%
    15:00 +20°C° 0 mm 4 mps 767 mmHg 40%
    16:00 +19°C° 0 mm 4 mps 767 mmHg 45%
    17:00 +17°C° 0 mm 4 mps 767 mmHg 50%
    18:00 +15°C° 0 mm 4 mps 767 mmHg 53%
    19:00 +14°C° 0 mm 4 mps 768 mmHg 57%
    20:00 +13°C° 0 mm 4 mps 768 mmHg 60%
    21:00 +12°C° 0 mm 3 mps 768 mmHg 60%
    22:00 +12°C° 0 mm 3 mps 768 mmHg 61%
    23:00 +11°C° 0 mm 3 mps 768 mmHg 62%

    Day after tomorrow, 23 March, Saturday

    Time Temperature Precipitation Wind Pressure Humidity
    00:00 +11°C° 0 mm 3 mps 768 mmHg 61%
    01:00 +11°C° 0 mm 3 mps 768 mmHg 60%
    02:00 +10°C° 0 mm 2 mps 767 mmHg 59%
    03:00 +10°C° 0 mm 2 mps 767 mmHg 58%
    04:00 +10°C° 0 mm 2 mps 767 mmHg 58%
    05:00 +10°C° 0 mm 2 mps 767 mmHg 57%
    06:00 +13°C° 0 mm 2 mps 767 mmHg 55%
    07:00 +15°C° 0 mm 2 mps 767 mmHg 52%
    08:00 +17°C° 0 mm 2 mps 767 mmHg 49%
    09:00 +19°C° 0 mm 2 mps 767 mmHg 44%
    10:00 +21°C° 0 mm 2 mps 767 mmHg 38%
    11:00 +24°C° 0 mm 1 mps 766 mmHg 33%
    12:00 +25°C° 0 mm 2 mps 766 mmHg 32%
    13:00 +25°C° 0 mm 2 mps 765 mmHg 32%
    14:00 +26°C° 0 mm 3 mps 765 mmHg 31%
    15:00 +24°C° 0 mm 3 mps 764 mmHg 37%
    16:00 +21°C° 0 mm 4 mps 764 mmHg 43%
    17:00 +20°C° 0 mm 4 mps 764 mmHg 49%
    18:00 +18°C° 0 mm 4 mps 764 mmHg 51%
    19:00 +17°C° 0 mm 4 mps 765 mmHg 54%
    20:00 +16°C° 0 mm 3 mps 765 mmHg 57%
    21:00 +16°C° 0 mm 3 mps 765 mmHg 57%
    22:00 +16°C° 0 mm 3 mps 765 mmHg 57%
    23:00 +16°C° 0 mm 2 mps 765 mmHg 56%

    24 March, Sunday

    Time Temperature Precipitation Wind Pressure Humidity
    00:00 +15°C° 0 mm 2 mps 765 mmHg 58%
    01:00 +14°C° 0 mm 2 mps 765 mmHg 60%
    02:00 +14°C° 0 mm 2 mps 764 mmHg 62%
    03:00 +13°C° 0 mm 2 mps 764 mmHg 63%
    04:00 +13°C° 0 mm 2 mps 764 mmHg 64%
    05:00 +13°C° 0 mm 2 mps 764 mmHg 65%
    06:00 +14°C° 0 mm 2 mps 765 mmHg 60%
    07:00 +16°C° 0 mm 2 mps 765 mmHg 56%
    08:00 +17°C° 0 mm 2 mps 765 mmHg 52%
    09:00 +20°C° 0 mm 2 mps 765 mmHg 45%
    10:00 +23°C° 0 mm 2 mps 765 mmHg 39%
    11:00 +25°C° 0 mm 2 mps 765 mmHg 33%
    12:00 +26°C° 0 mm 2 mps 764 mmHg 32%
    13:00 +26°C° 0 mm 2 mps 764 mmHg 31%
    14:00 +26°C° 0 mm 3 mps 763 mmHg 30%
    15:00 +25°C° 0 mm 3 mps 763 mmHg 35%
    16:00 +24°C° 0 mm 3 mps 763 mmHg 41%
    17:00 +22°C° 0 mm 3 mps 762 mmHg 46%
    18:00 +20°C° 0 mm 3 mps 763 mmHg 48%
    19:00 +18°C° 0 mm 3 mps 763 mmHg 49%
    20:00 +17°C° 0 mm 3 mps 763 mmHg 51%
    21:00 +16°C° 0 mm 3 mps 763 mmHg 51%
    22:00 +14°C° 0 mm 3 mps 763 mmHg 52%
    23:00 +14°C° 0 mm 3 mps 763 mmHg 53%

    25 March, Monday

    Time Temperature Precipitation Wind Pressure Humidity
    00:00 +13°C° 0 mm 3 mps 763 mmHg 54%
    01:00 +13°C° 0 mm 3 mps 763 mmHg 55%
    02:00 +13°C° 0 mm 3 mps 763 mmHg 56%
    03:00 +12°C° 0 mm 3 mps 763 mmHg 59%
    04:00 +12°C° 0 mm 3 mps 763 mmHg 61%
    05:00 +12°C° 0 mm 3 mps 763 mmHg 64%
    06:00 +13°C° 0 mm 3 mps 763 mmHg 60%
    07:00 +16°C° 0 mm 3 mps 763 mmHg 56%
    08:00 +17°C° 0 mm 3 mps 764 mmHg 52%
    09:00 +19°C° 0 mm 3 mps 763 mmHg 45%
    10:00 +23°C° 0 mm 2 mps 763 mmHg 38%
    11:00 +25°C° 0 mm 2 mps 763 mmHg 31%
    12:00 +25°C° 0 mm 2 mps 762 mmHg 30%
    13:00 +26°C° 0 mm 3 mps 762 mmHg 29%
    14:00 +26°C° 0 mm 3 mps 761 mmHg 28%
    15:00 +25°C° 0 mm 3 mps 761 mmHg 35%
    16:00 +22°C° 0 mm 3 mps 761 mmHg 41%
    17:00 +20°C° 0 mm 3 mps 761 mmHg 48%
    18:00 +20°C° 0 mm 2 mps 761 mmHg 49%
    19:00 +19°C° 0 mm 2 mps 762 mmHg 49%
    20:00 +18°C° 0 mm 2 mps 762 mmHg 50%
    21:00 +17°C° 0 mm 2 mps 762 mmHg 51%
    22:00 +17°C° 0 mm 2 mps 762 mmHg 52%
    23:00 +17°C° 0 mm 2 mps 762 mmHg 53%

    26 March, Tuesday

    Time Temperature Precipitation Wind Pressure Humidity
    00:00 +16°C° 0 mm 2 mps 762 mmHg 55%
    01:00 +14°C° 0 mm 3 mps 762 mmHg 56%
    02:00 +13°C° 0 mm 3 mps 762 mmHg 58%
    03:00 +13°C° 0 mm 3 mps 762 mmHg 58%
    04:00 +13°C° 0 mm 3 mps 762 mmHg 58%
    05:00 +13°C° 0 mm 4 mps 762 mmHg 58%
    06:00 +15°C° 0 mm 4 mps 762 mmHg 55%
    07:00 +17°C° 0 mm 3 mps 762 mmHg 53%
    08:00 +19°C° 0 mm 3 mps 762 mmHg 51%
    09:00 +21°C° 0 mm 3 mps 762 mmHg 46%
    10:00 +24°C° 0 mm 2 mps 762 mmHg 41%
    11:00 +27°C° 0 mm 1 mps 762 mmHg 36%
    12:00 +27°C° 0 mm 2 mps 761 mmHg 35%
    13:00 +27°C° 0 mm 3 mps 761 mmHg 35%
    14:00 +28°C° 0 mm 3 mps 760 mmHg 34%
    15:00 +26°C° 0 mm 4 mps 760 mmHg 40%
    16:00 +25°C° 0 mm 4 mps 760 mmHg 45%
    17:00 +22°C° 0 mm 4 mps 760 mmHg 51%
    18:00 +20°C° 0 mm 4 mps 760 mmHg 52%
    19:00 +19°C° 0 mm 4 mps 761 mmHg 54%
    20:00 +17°C° 0 mm 4 mps 761 mmHg 55%
    21:00 +17°C° 0 mm 3 mps 761 mmHg 55%
    22:00 +16°C° 0 mm 3 mps 761 mmHg 54%
    23:00 +16°C° 0 mm 2 mps 761 mmHg 54%
    Show more